Date String (YYYY-MM-DD hh:mm:ss) UTC,Instrument flags,Ambient pressure (hPa),Sample flow (lpm),Bypass flow (lpm),Sample temperature (°C),Ambient temperature (°C),ASC tube jacket temperature (°C),LED temperature (°C),Box temperature (°C),Sample RH (%),Span deviation,Mass concentration (μg/m³),Mass concentration (μg/m³),Mass concentration (μg/m³)
DateTimeUTC,F1_M11,P_M11,Q1_M11,Q2_M11,T1_M11,T2_M11,T3_M11,T4_M11,T5_M11,U1_M11,ZSPAN_M11,X2_M11,X0_M11,X1_M11
2022-06-15 15:00:00,,0824.3,5.00,0.00,28.7,27.8,00.0,37.5,30.6,07.3,0002.5,0003.89,0012.42,0002.80
2022-06-15 15:01:00,,0824.2,5.01,0.00,28.7,27.8,00.0,37.5,30.6,07.0,0002.0,0003.91,0012.61,0002.79
2022-06-15 15:02:00,,0824.1,5.01,0.00,28.7,27.8,00.0,37.5,30.6,07.4,0002.9,0003.90,0012.55,0002.77
2022-06-15 15:03:00,,0824.1,5.00,0.00,28.7,27.8,00.0,37.5,30.6,07.2,0004.3,0003.90,0012.48,0002.74
2022-06-15 15:04:00,,0824.1,5.00,0.00,28.7,27.8,00.0,37.6,30.6,07.0,0003.8,0003.87,0012.56,0002.70
2022-06-15 15:05:00,,0824.1,5.00,0.00,28.7,27.7,00.0,37.6,30.7,07.0,0002.2,0003.84,0012.58,0002.68
2022-06-15 15:06:00,,0824.1,5.00,0.00,28.7,27.7,00.0,37.6,30.7,06.8,0000.0,0003.80,0012.40,0002.67
2022-06-15 15:07:00,,0824.1,4.99,0.00,28.7,27.7,00.0,37.6,30.7,06.5,0000.0,0003.74,0011.64,0002.67
2022-06-15 15:08:00,,0824.2,5.00,0.00,28.8,27.7,00.0,37.6,30.7,06.5,0000.0,0003.72,0010.78,0002.68
2022-06-15 15:09:00,,0824.1,5.00,0.00,28.8,27.8,00.0,37.6,30.7,06.5,0000.0,0003.71,0010.45,0002.69
2022-06-15 15:10:00,,0824.1,5.00,0.00,28.8,27.8,00.0,37.6,30.7,06.6,0000.0,0003.61,0009.23,0002.69
2022-06-15 15:11:00,,0824.0,5.00,0.00,28.8,27.8,00.0,37.6,30.7,06.9,0000.0,0003.53,0008.75,0002.68
2022-06-15 15:12:00,,0824.1,5.00,0.00,28.8,27.8,00.0,37.6,30.7,06.7,0000.0,0003.50,0008.64,0002.68
2022-06-15 15:13:00,,0824.1,4.99,0.00,28.8,27.8,00.0,37.6,30.7,06.6,0000.0,0003.51,0008.77,0002.69
2022-06-15 15:14:00,,0824.1,5.01,0.00,28.8,27.8,00.0,37.6,30.7,06.3,0000.0,0003.51,0009.26,0002.69
2022-06-15 15:15:00,,0824.1,5.01,0.00,28.8,27.8,00.0,37.7,30.7,06.3,0000.0,0003.47,0008.98,0002.69
2022-06-15 15:16:00,,0824.0,5.00,0.00,28.8,27.8,00.0,37.7,30.8,06.3,0000.0,0003.44,0008.84,0002.68
2022-06-15 15:17:00,,0823.9,5.00,0.00,28.8,27.8,00.0,37.7,30.8,06.5,0000.0,0003.38,0008.53,0002.65
2022-06-15 15:18:00,,0823.9,4.99,0.00,28.8,27.8,00.0,37.7,30.8,06.6,0000.0,0003.39,0008.76,0002.65
2022-06-15 15:19:00,,0824.0,4.99,0.00,28.8,27.8,00.0,37.7,30.8,06.6,0000.6,0003.39,0008.90,0002.66
2022-06-15 15:20:00,,0823.8,5.00,0.00,28.9,27.8,00.0,37.7,30.8,06.5,0000.3,0003.41,0008.87,0002.66
2022-06-15 15:21:00,,0823.7,5.00,0.00,28.9,27.8,00.0,37.7,30.8,06.2,0000.0,0003.45,0009.23,0002.67
2022-06-15 15:22:00,,0823.7,5.00,0.00,28.9,27.8,00.0,37.7,30.8,06.1,0003.7,0003.47,0009.58,0002.65
2022-06-15 15:23:00,,0823.9,5.00,0.00,28.9,27.9,00.0,37.7,30.8,06.1,0003.5,0003.46,0009.43,0002.65
2022-06-15 15:24:00,,0823.9,5.00,0.00,28.9,27.9,00.0,37.7,30.8,06.3,0000.0,0003.47,0009.47,0002.64
2022-06-15 15:25:00,,0823.7,5.00,0.00,28.9,27.9,00.0,37.7,30.8,06.5,0000.0,0003.48,0009.13,0002.63
2022-06-15 15:26:00,,0823.7,4.99,0.00,28.9,27.9,00.0,37.7,30.8,06.4,0000.0,0003.50,0009.02,0002.61
2022-06-15 15:27:00,,0823.8,5.00,0.00,28.9,27.9,00.0,37.7,30.8,06.4,0000.0,0003.49,0009.03,0002.62
2022-06-15 15:28:00,,0823.9,5.00,0.00,28.9,27.9,00.0,37.8,30.8,06.5,0000.0,0003.48,0009.01,0002.62
2022-06-15 15:29:00,,0823.9,5.00,0.00,28.9,28.0,00.0,37.8,30.9,06.6,0000.0,0003.48,0008.58,0002.62
2022-06-15 15:30:00,,0824.0,5.01,0.00,29.0,28.0,00.0,37.8,30.9,06.7,0000.0,0003.47,0008.40,0002.60
2022-06-15 15:31:00,,0824.2,5.00,0.00,29.0,28.1,00.0,37.8,30.9,06.8,0000.0,0003.44,0008.09,0002.57
2022-06-15 15:32:00,,0824.2,5.00,0.00,29.0,28.1,00.0,37.8,30.9,06.8,0000.0,0003.42,0007.54,0002.54
2022-06-15 15:33:00,,0824.1,5.00,0.00,29.0,28.1,00.0,37.8,30.9,06.8,0000.0,0003.41,0007.27,0002.53
2022-06-15 15:34:00,,0824.0,5.01,0.00,29.0,28.1,00.0,37.8,30.9,06.9,0000.0,0003.44,0007.48,0002.51
2022-06-15 15:35:00,,0823.8,4.99,0.00,29.0,28.1,00.0,37.8,30.9,06.9,0000.0,0003.36,0007.12,0002.48
2022-06-15 15:36:00,,0823.8,5.01,0.00,29.0,28.1,00.0,37.8,30.9,06.7,0000.0,0003.35,0007.27,0002.46
2022-06-15 15:37:00,,0824.0,5.01,0.00,29.0,28.1,00.0,37.9,31.0,06.6,0000.0,0003.38,0007.80,0002.47
2022-06-15 15:38:00,,0824.2,5.00,0.00,29.0,28.1,00.0,37.9,31.0,06.6,0000.0,0003.38,0007.92,0002.47
2022-06-15 15:39:00,,0824.0,4.99,0.00,29.1,28.1,00.0,37.9,31.0,06.6,0000.0,0003.46,0008.41,0002.48
2022-06-15 15:40:00,,0823.7,5.00,0.00,29.1,28.1,00.0,37.9,31.0,06.6,0000.0,0003.50,0008.72,0002.49
2022-06-15 15:41:00,,0823.7,5.01,0.00,29.1,28.1,00.0,37.9,31.0,06.5,0000.0,0003.51,0008.86,0002.49
2022-06-15 15:42:00,,0823.8,5.00,0.00,29.1,28.2,00.0,37.9,31.0,06.6,0000.0,0003.56,0009.09,0002.50
2022-06-15 15:43:00,,0823.9,4.99,0.00,29.1,28.2,00.0,37.9,31.0,06.7,0000.0,0003.54,0008.80,0002.50
2022-06-15 15:44:00,,0824.0,5.01,0.00,29.1,28.2,00.0,37.9,31.0,06.7,0000.0,0003.51,0008.51,0002.50
2022-06-15 15:45:00,,0824.0,5.02,0.00,29.1,28.2,00.0,37.9,31.0,06.7,0000.0,0003.48,0008.36,0002.52
2022-06-15 15:46:00,,0824.0,4.99,0.00,29.1,28.2,00.0,37.9,31.0,06.7,0000.0,0003.51,0008.39,0002.52
2022-06-15 15:47:00,,0824.0,4.99,0.00,29.1,28.2,00.0,38.0,31.1,06.7,0000.0,0003.46,0008.15,0002.52
2022-06-15 15:48:00,,0823.9,5.00,0.00,29.2,28.3,00.0,38.0,31.1,06.7,0000.0,0003.41,0007.88,0002.51
2022-06-15 15:49:00,,0823.8,5.00,0.00,29.2,28.3,00.0,38.0,31.1,06.6,0000.0,0003.41,0007.98,0002.49
2022-06-15 15:50:00,,0823.7,5.01,0.00,29.2,28.3,00.0,38.0,31.1,06.6,0000.0,0003.34,0007.58,0002.46
2022-06-15 15:51:00,,0823.8,5.01,0.00,29.2,28.3,00.0,38.0,31.1,06.7,0000.0,0003.28,0007.28,0002.43
2022-06-15 15:52:00,,0823.7,5.00,0.00,29.2,28.3,00.0,38.0,31.1,06.7,0000.0,0003.30,0007.15,0002.43
2022-06-15 15:53:00,,0823.7,5.00,0.00,29.2,28.3,00.0,38.0,31.1,06.6,0000.0,0003.30,0007.03,0002.44
2022-06-15 15:54:00,,0823.9,5.01,0.00,29.2,28.2,00.0,38.0,31.1,06.6,0000.0,0003.35,0008.01,0002.43
2022-06-15 15:55:00,,0823.9,5.01,0.00,29.2,28.2,00.0,38.0,31.1,06.6,0000.0,0003.42,0008.87,0002.44
2022-06-15 15:56:00,,0823.9,5.00,0.00,29.2,28.3,00.0,38.0,31.1,06.5,0000.0,0003.43,0008.99,0002.43
2022-06-15 15:57:00,,0823.8,5.00,0.00,29.2,28.3,00.0,38.0,31.1,06.6,0000.0,0003.45,0009.44,0002.44
2022-06-15 15:58:00,,0823.9,5.00,0.00,29.2,28.2,00.0,38.1,31.1,06.6,0000.0,0003.46,0009.48,0002.47
2022-06-15 15:59:00,,0823.9,5.00,0.00,29.2,28.2,00.0,38.1,31.1,06.6,0000.0,0003.50,0009.43,0002.48
